When you browse on this site, cookies collect data to enhance your experience and personalize the content and advertising you see.
Visit our Privacy Policy to learn more. By continuing to use the site, you agree to this use of cookies and data.
  • In Österreich
  • Länderverzeichnis
  • Für 7 Tage
  • Wassertemperatur
  • Satellitenkarten
  • Wetterkarte
  • News
  • Widgets
  • user-avatar
    Anmelden

    Stündliche Wetter Luksor

    Heute, 21 März, Donnerstag

    Zeit Temperatur Niederschläge Wind Luftdruck Luftfeuchtigkeit
    00:00 +24°C° 0 mm 3 m/S 751 mmHg 24%
    01:00 +22°C° 0 mm 3 m/S 751 mmHg 26%
    02:00 +21°C° 0 mm 3 m/S 751 mmHg 29%
    03:00 +21°C° 0 mm 2 m/S 751 mmHg 31%
    04:00 +20°C° 0 mm 2 m/S 751 mmHg 34%
    05:00 +19°C° 0 mm 2 m/S 751 mmHg 36%
    06:00 +21°C° 0 mm 2 m/S 751 mmHg 34%
    07:00 +23°C° 0 mm 2 m/S 752 mmHg 33%
    08:00 +24°C° 0 mm 3 m/S 752 mmHg 31%
    09:00 +26°C° 0 mm 3 m/S 752 mmHg 26%
    10:00 +28°C° 0 mm 3 m/S 752 mmHg 20%
    11:00 +30°C° 0 mm 3 m/S 752 mmHg 15%
    12:00 +32°C° 0 mm 4 m/S 752 mmHg 13%
    13:00 +33°C° 0 mm 5 m/S 751 mmHg 12%
    14:00 +35°C° 0 mm 6 m/S 751 mmHg 11%
    15:00 +34°C° 0 mm 6 m/S 751 mmHg 11%
    16:00 +34°C° 0 mm 6 m/S 750 mmHg 11%
    17:00 +34°C° 0 mm 6 m/S 750 mmHg 12%
    18:00 +33°C° 0 mm 6 m/S 750 mmHg 13%
    19:00 +30°C° 0 mm 5 m/S 751 mmHg 14%
    20:00 +29°C° 0 mm 5 m/S 751 mmHg 16%
    21:00 +28°C° 0 mm 5 m/S 751 mmHg 16%
    22:00 +27°C° 0 mm 4 m/S 752 mmHg 17%
    23:00 +26°C° 0 mm 3 m/S 752 mmHg 17%

    Morgen, 22 März, Freitag

    Zeit Temperatur Niederschläge Wind Luftdruck Luftfeuchtigkeit
    00:00 +26°C° 0 mm 3 m/S 752 mmHg 18%
    01:00 +25°C° 0 mm 2 m/S 752 mmHg 18%
    02:00 +24°C° 0 mm 2 m/S 752 mmHg 19%
    03:00 +24°C° 0 mm 2 m/S 752 mmHg 19%
    04:00 +23°C° 0 mm 2 m/S 752 mmHg 19%
    05:00 +23°C° 0 mm 1 m/S 752 mmHg 19%
    06:00 +24°C° 0 mm 1 m/S 752 mmHg 18%
    07:00 +25°C° 0 mm 1 m/S 753 mmHg 18%
    08:00 +26°C° 0 mm 1 m/S 753 mmHg 17%
    09:00 +28°C° 0 mm 2 m/S 753 mmHg 15%
    10:00 +29°C° 0 mm 3 m/S 753 mmHg 13%
    11:00 +31°C° 0 mm 3 m/S 752 mmHg 12%
    12:00 +32°C° 0 mm 4 m/S 752 mmHg 11%
    13:00 +33°C° 0 mm 4 m/S 751 mmHg 11%
    14:00 +34°C° 0 mm 4 m/S 751 mmHg 10%
    15:00 +34°C° 0 mm 4 m/S 750 mmHg 10%
    16:00 +34°C° 0 mm 4 m/S 750 mmHg 10%
    17:00 +34°C° 0 mm 3 m/S 750 mmHg 9%
    18:00 +33°C° 0 mm 3 m/S 750 mmHg 10%
    19:00 +31°C° 0 mm 3 m/S 751 mmHg 11%
    20:00 +30°C° 0 mm 3 m/S 751 mmHg 12%
    21:00 +29°C° 0 mm 3 m/S 751 mmHg 12%
    22:00 +28°C° 0 mm 2 m/S 751 mmHg 13%
    23:00 +27°C° 0 mm 1 m/S 752 mmHg 14%

    übermorgen, 23 März, Samstag

    Zeit Temperatur Niederschläge Wind Luftdruck Luftfeuchtigkeit
    00:00 +26°C° 0 mm 1 m/S 751 mmHg 15%
    01:00 +26°C° 0 mm 1 m/S 751 mmHg 16%
    02:00 +25°C° 0 mm 1 m/S 750 mmHg 17%
    03:00 +24°C° 0 mm 1 m/S 750 mmHg 18%
    04:00 +24°C° 0 mm 1 m/S 750 mmHg 20%
    05:00 +23°C° 0 mm 1 m/S 750 mmHg 21%
    06:00 +24°C° 0 mm 1 m/S 750 mmHg 19%
    07:00 +26°C° 0 mm 1 m/S 750 mmHg 17%
    08:00 +27°C° 0 mm 1 m/S 750 mmHg 16%
    09:00 +29°C° 0 mm 2 m/S 750 mmHg 14%
    10:00 +31°C° 0 mm 2 m/S 750 mmHg 12%
    11:00 +32°C° 0 mm 2 m/S 750 mmHg 11%
    12:00 +33°C° 0 mm 1 m/S 749 mmHg 10%
    13:00 +34°C° 0 mm 1 m/S 748 mmHg 10%
    14:00 +33°C° 0 mm 0 m/S 748 mmHg 10%
    15:00 +33°C° 0 mm 0 m/S 747 mmHg 10%
    16:00 +35°C° 0 mm 1 m/S 747 mmHg 10%
    17:00 +35°C° 0 mm 1 m/S 747 mmHg 10%
    18:00 +35°C° 0 mm 2 m/S 747 mmHg 11%
    19:00 +33°C° 0 mm 3 m/S 748 mmHg 12%
    20:00 +31°C° 0 mm 3 m/S 748 mmHg 13%
    21:00 +30°C° 0 mm 4 m/S 748 mmHg 15%
    22:00 +28°C° 0 mm 4 m/S 748 mmHg 18%
    23:00 +27°C° 0 mm 4 m/S 748 mmHg 21%

    24 März, Sonntag

    Zeit Temperatur Niederschläge Wind Luftdruck Luftfeuchtigkeit
    00:00 +26°C° 0 mm 3 m/S 747 mmHg 20%
    01:00 +25°C° 0 mm 3 m/S 746 mmHg 19%
    02:00 +25°C° 0 mm 2 m/S 746 mmHg 19%
    03:00 +24°C° 0 mm 2 m/S 746 mmHg 19%
    04:00 +24°C° 0 mm 2 m/S 746 mmHg 19%
    05:00 +23°C° 0 mm 2 m/S 746 mmHg 19%
    06:00 +24°C° 0 mm 2 m/S 746 mmHg 18%
    07:00 +25°C° 0 mm 2 m/S 747 mmHg 17%
    08:00 +26°C° 0 mm 2 m/S 747 mmHg 16%
    09:00 +28°C° 0 mm 2 m/S 747 mmHg 15%
    10:00 +29°C° 0 mm 2 m/S 746 mmHg 14%
    11:00 +31°C° 0 mm 2 m/S 746 mmHg 13%
    12:00 +32°C° 0 mm 2 m/S 745 mmHg 12%
    13:00 +34°C° 0 mm 2 m/S 745 mmHg 12%
    14:00 +35°C° 0 mm 3 m/S 744 mmHg 11%
    15:00 +35°C° 0 mm 3 m/S 744 mmHg 11%
    16:00 +35°C° 0 mm 4 m/S 744 mmHg 11%
    17:00 +35°C° 0 mm 5 m/S 744 mmHg 11%
    18:00 +34°C° 0 mm 6 m/S 745 mmHg 13%
    19:00 +32°C° 0 mm 7 m/S 745 mmHg 16%
    20:00 +31°C° 0 mm 8 m/S 746 mmHg 18%
    21:00 +29°C° 0 mm 8 m/S 746 mmHg 19%
    22:00 +28°C° 0 mm 7 m/S 746 mmHg 19%
    23:00 +27°C° 0 mm 7 m/S 747 mmHg 20%

    25 März, Montag

    Zeit Temperatur Niederschläge Wind Luftdruck Luftfeuchtigkeit
    00:00 +26°C° 0 mm 7 m/S 747 mmHg 21%
    01:00 +24°C° 0 mm 7 m/S 747 mmHg 22%
    02:00 +23°C° 0 mm 7 m/S 747 mmHg 24%
    03:00 +22°C° 0 mm 6 m/S 747 mmHg 25%
    04:00 +22°C° 0 mm 5 m/S 747 mmHg 27%
    05:00 +21°C° 0 mm 5 m/S 748 mmHg 29%
    06:00 +22°C° 0 mm 6 m/S 748 mmHg 29%
    07:00 +22°C° 0 mm 7 m/S 749 mmHg 28%
    08:00 +22°C° 0 mm 9 m/S 750 mmHg 28%
    09:00 +23°C° 0 mm 9 m/S 750 mmHg 25%
    10:00 +24°C° 0 mm 9 m/S 750 mmHg 22%
    11:00 +27°C° 0 mm 10 m/S 750 mmHg 18%
    12:00 +27°C° 0 mm 10 m/S 749 mmHg 18%
    13:00 +28°C° 0 mm 9 m/S 749 mmHg 18%
    14:00 +28°C° 0 mm 9 m/S 749 mmHg 17%
    15:00 +28°C° 0 mm 9 m/S 749 mmHg 19%
    16:00 +27°C° 0 mm 9 m/S 749 mmHg 20%
    17:00 +27°C° 0 mm 8 m/S 749 mmHg 21%
    18:00 +26°C° 0 mm 7 m/S 750 mmHg 22%
    19:00 +24°C° 0 mm 6 m/S 750 mmHg 24%
    20:00 +23°C° 0 mm 6 m/S 751 mmHg 25%
    21:00 +23°C° 0 mm 5 m/S 751 mmHg 25%
    22:00 +22°C° 0 mm 4 m/S 751 mmHg 26%
    23:00 +21°C° 0 mm 4 m/S 751 mmHg 26%

    26 März, Dienstag

    Zeit Temperatur Niederschläge Wind Luftdruck Luftfeuchtigkeit
    00:00 +21°C° 0 mm 3 m/S 751 mmHg 27%
    01:00 +20°C° 0 mm 3 m/S 751 mmHg 27%
    02:00 +20°C° 0 mm 3 m/S 751 mmHg 28%
    03:00 +19°C° 0 mm 3 m/S 751 mmHg 29%
    04:00 +19°C° 0 mm 3 m/S 751 mmHg 29%
    05:00 +18°C° 0 mm 3 m/S 751 mmHg 30%
    06:00 +19°C° 0 mm 3 m/S 752 mmHg 29%
    07:00 +20°C° 0 mm 4 m/S 753 mmHg 28%
    08:00 +21°C° 0 mm 4 m/S 753 mmHg 27%
    09:00 +23°C° 0 mm 5 m/S 753 mmHg 24%
    10:00 +25°C° 0 mm 5 m/S 753 mmHg 21%
    11:00 +26°C° 0 mm 6 m/S 753 mmHg 17%
    12:00 +27°C° 0 mm 6 m/S 753 mmHg 16%
    13:00 +28°C° 0 mm 6 m/S 752 mmHg 14%
    14:00 +29°C° 0 mm 6 m/S 752 mmHg 13%
    15:00 +28°C° 0 mm 6 m/S 752 mmHg 13%
    16:00 +28°C° 0 mm 6 m/S 752 mmHg 13%
    17:00 +28°C° 0 mm 6 m/S 752 mmHg 13%
    18:00 +27°C° 0 mm 5 m/S 752 mmHg 14%
    19:00 +26°C° 0 mm 4 m/S 753 mmHg 16%
    20:00 +25°C° 0 mm 4 m/S 753 mmHg 17%
    21:00 +24°C° 0 mm 3 m/S 753 mmHg 18%
    22:00 +22°C° 0 mm 3 m/S 754 mmHg 19%
    23:00 +21°C° 0 mm 3 m/S 754 mmHg 20%
    Mehr zeigen